Flag for Germany Weather past 2 weeks in Gummersbach, North Rhine-Westphalia, Germany

Now
41 °F

Sprinkles. Broken clouds.


Feels Like: 31 °F
Forecast: 31 / 46 °F
Wind: 22 mph from Northwest

Location: Koeln / Bonn

Current Time: Apr 2, 2015 at 11:54:50 AM

Latest Report: Apr 2, 2015 at 11:20 AM


Visibility: N/A

Pressure: 29.92 "Hg

Humidity: 76%

Dew point: 34 °F

Location of GummersbachLocation

Historic Weather in Gummersbach — Graph

°F

Gummersbach temperature yesterday

Maximum temperature yesterday: 46 °F (at 2:20 PM)
Minimum temperature yesterday: 37 °F (at 12:20 PM)
Average temperature yesterday: 42 °F

Past Weeks' High & Low Weather Summary

 TemperatureHumidityPressure
High63 °F (Mar 18, 2:50 PM)100% (Mar 21, 10:20 AM)30.36 "Hg (Mar 21, 10:20 AM)
Low28 °F (Mar 23, 5:20 AM)37% (Mar 26, 2:50 PM)29.33 "Hg (Mar 31, 5:20 AM)
Average45 °F75%29.94 "Hg
* Reported Mar 18 9:20 AM — Apr 2 10:20 AM, Gummersbach, Weather by CustomWeather, © 2015

Note: Actual official high and low records may vary slightly from our data, if they occured in-between our weather recording intervals... More about our weather records

Advertising

Gummersbach weather history for previous 24 hours

 ConditionsComfort  
Time TempWeatherWind HumidityBarometerVisibility
10:20 AM
Thu, Apr 2
41 °FPartly sunny.16 mph87%29.89 "HgN/A
9:50 AM39 °FRain. Partly sunny.20 mph93%29.86 "Hg4 mi
9:20 AM41 °FLight rain. Partly sunny.17 mph87%29.83 "Hg5 mi
8:50 AM41 °FLight rain. Partly sunny.12 mph93%29.80 "HgN/A
8:20 AM39 °FRain. Mostly cloudy.13 mph93%29.80 "HgN/A
7:50 AM39 °FRain. Passing clouds.13 mph93%29.80 "HgN/A
7:20 AM39 °FRain. Mostly cloudy.13 mph93%29.83 "HgN/A
6:50 AM39 °FRain. Mostly cloudy.18 mph93%29.83 "HgN/A
6:20 AM41 °FLight rain. Mostly cloudy.14 mph87%29.83 "HgN/A
5:50 AM41 °FLight rain. Mostly cloudy.16 mph93%29.86 "HgN/A
5:20 AM41 °FLight rain. Mostly cloudy.14 mph93%29.86 "HgN/A
4:50 AM41 °FLight rain. Passing clouds.15 mph87%29.89 "HgN/A
4:20 AM43 °FLight rain. Passing clouds.15 mph87%29.92 "HgN/A
3:50 AM43 °FLight rain. Passing clouds.17 mph81%29.92 "HgN/A
3:20 AM41 °FPartly cloudy.14 mph93%29.95 "HgN/A
2:50 AM41 °FPassing clouds.13 mph87%29.98 "HgN/A
2:20 AM41 °FSprinkles. Partly cloudy.15 mph87%29.98 "HgN/A
1:50 AM39 °FSprinkles. Partly cloudy.17 mph87%30.01 "HgN/A
1:20 AM37 °FRain showers. Passing clouds.24 mph93%30.04 "Hg5 mi
12:50 AM43 °FSprinkles. Passing clouds.14 mph76%30.01 "HgN/A
12:20 AM43 °FSprinkles. Passing clouds.20 mph76%30.04 "HgN/A
11:50 PM
Wed, Apr 1
43 °FSprinkles. Partly cloudy.20 mph76%30.04 "HgN/A
11:20 PM43 °FPassing clouds.16 mph71%30.07 "HgN/A
10:50 PM45 °FSprinkles. Passing clouds.16 mph61%30.07 "HgN/A
10:20 PM45 °FMostly cloudy.14 mph57%30.07 "HgN/A
9:50 PM43 °FMostly cloudy.9 mph61%30.07 "HgN/A
9:20 PM45 °FPartly cloudy.13 mph57%30.09 "HgN/A
8:50 PM45 °FSprinkles. Mostly cloudy.16 mph57%30.09 "HgN/A
8:20 PM45 °FBroken clouds.21 mph53%30.09 "HgN/A
7:50 PM45 °FBroken clouds.21 mph53%30.09 "HgN/A
7:20 PM46 °FBroken clouds.16 mph50%30.09 "HgN/A
6:50 PM43 °FScattered showers. Broken clouds.13 mph71%30.07 "HgN/A
6:20 PM43 °FSprinkles. Broken clouds.24 mph66%30.07 "HgN/A
5:50 PM46 °FSprinkles. Broken clouds.28 mph50%30.07 "HgN/A
5:20 PM46 °FSprinkles. Scattered clouds.29 mph50%30.07 "HgN/A
4:50 PM46 °FScattered showers. Scattered clouds.30 mph50%30.07 "HgN/A
4:20 PM45 °FScattered showers. Scattered clouds.29 mph57%30.07 "HgN/A
3:50 PM45 °FSprinkles. Scattered clouds.25 mph61%30.07 "HgN/A
3:20 PM46 °FSprinkles. Scattered clouds.28 mph57%30.07 "HgN/A
2:50 PM45 °FScattered showers. Scattered clouds.29 mph61%30.07 "HgN/A
2:20 PM46 °FScattered showers. Scattered clouds.23 mph62%30.04 "HgN/A
1:50 PM45 °FScattered showers. Scattered clouds.20 mph66%30.07 "HgN/A
1:20 PM43 °FScattered showers. Scattered clouds.9 mph81%30.07 "HgN/A
12:50 PM39 °FPartly sunny.10 mph93%30.07 "HgN/A
12:20 PM37 °FRain showers. Partly sunny.13 mph87%30.07 "Hg5 mi
11:50 AM39 °FSprinkles. Partly sunny.17 mph81%30.07 "Hg6 mi
11:20 AM41 °FSprinkles. Partly sunny.17 mph70%30.07 "HgN/A
Weather by CustomWeather, © 2015

See weather overviewHow to use our weather pages